This is the latest recevied weather packets stored in our database for station/object IU5JAE-13. If no packets are shown the sender has not sent any weather packets the latest 10 day(s).
| Time | Temp. | Humidity | Pressure | Rain* | Wind** | Luminosity | Snow |
|---|---|---|---|---|---|---|---|
| 1777634132 | 18.89° C | 37% | 1024.1 hPa | 0 mm | - | 680 W/m² | - |
| 1777633530 | 18.89° C | 37% | 1024.2 hPa | 0 mm | - | 682 W/m² | - |
| 1777632927 | 18.33° C | 36% | 1024.4 hPa | 0 mm | - | 681 W/m² | - |
| 1777632325 | 18.89° C | 37% | 1024.5 hPa | 0 mm | - | 678 W/m² | - |
| 1777631722 | 18.33° C | 38% | 1024.5 hPa | 0 mm | - | 673 W/m² | - |
| 1777631120 | 17.78° C | 39% | 1024.5 hPa | 0 mm | - | 668 W/m² | - |
| 1777630517 | 17.22° C | 39% | 1024.4 hPa | 0 mm | - | 662 W/m² | - |
| 1777629935 | 17.78° C | 40% | 1024.5 hPa | 0 mm | - | 652 W/m² | - |
| 1777629333 | 17.78° C | 39% | 1024.5 hPa | 0 mm | - | 642 W/m² | - |
| 1777628730 | 17.22° C | 40% | 1024.6 hPa | 0 mm | - | 627 W/m² | - |
| 1777628128 | 16.67° C | 41% | 1024.7 hPa | 0 mm | - | 618 W/m² | - |
| 1777627526 | 17.22° C | 40% | 1024.7 hPa | 0 mm | - | 601 W/m² | - |
| 1777626923 | 16.67° C | 40% | 1024.8 hPa | 0 mm | - | 582 W/m² | - |
| 1777626321 | 16.67° C | 39% | 1024.8 hPa | 0 mm | - | 565 W/m² | - |
| 1777625718 | 17.22° C | 39% | 1024.8 hPa | 0 mm | - | 543 W/m² | - |
| 1777625116 | 16.11° C | 40% | 1024.8 hPa | 0 mm | - | 526 W/m² | - |
| 1777624533 | 16.11° C | 39% | 1024.7 hPa | 0 mm | - | 506 W/m² | - |
| 1777623931 | 16.11° C | 41% | 1024.7 hPa | 0 mm | - | 486 W/m² | - |
| 1777623329 | 16.67° C | 40% | 1024.5 hPa | 0 mm | - | 472 W/m² | - |
| 1777622726 | 16.11° C | 43% | 1024.5 hPa | 0 mm | - | 464 W/m² | - |
| 1777622124 | 16.11° C | 42% | 1024.3 hPa | 0 mm | - | 452 W/m² | - |
| 1777621521 | 16.11° C | 44% | 1024.2 hPa | 0 mm | - | 436 W/m² | - |
| 1777620919 | 15° C | 43% | 1024.2 hPa | 0 mm | - | 402 W/m² | - |
| 1777620317 | 15° C | 45% | 1024.1 hPa | 0 mm | - | 371 W/m² | - |
| 1777619734 | 15° C | 44% | 1024.1 hPa | 0 mm | - | 342 W/m² | - |
* Rain latest hour (hover to see other rain measurements)
** Current wind speed in m/s (hover to see current wind gust speed)